Location: Haliburton Scout Reserve
(45.0900°N, 78.3200°W)
Time: 12:34:19
(UTC-04:00)

JY1SAT - Visible Passes

Search period start: 21 June 2024 00:00
Search period end: 01 July 2024 00:00
Orbit: 538 x 549 km, 97.5° (Epoch: 20 June)

Date Brightness Start Highest point End Pass type
(mag) Time Alt. Az. Time Alt. Az. Time Alt. Az.
21 Jun ? 22:01:40 10° SSE 22:05:35 79° ENE 22:09:33 10° N visible
22 Jun ? 21:55:31 10° SSE 21:59:24 67° ENE 22:03:20 10° N visible
22 Jun ? 23:33:45 10° W 23:34:27 10° W 23:35:10 10° WNW visible
23 Jun ? 21:49:21 10° SSE 21:53:12 56° ENE 21:57:06 10° N visible
23 Jun ? 23:26:31 10° WSW 23:28:11 12° W 23:29:51 10° WNW visible
24 Jun ? 21:43:13 10° SSE 21:47:00 48° ENE 21:50:49 10° N visible
24 Jun ? 23:19:41 10° SW 23:21:53 14° W 23:24:06 10° WNW visible
25 Jun ? 21:37:06 10° SE 21:40:48 41° ENE 21:44:31 10° N visible
25 Jun ? 23:13:00 10° SW 23:15:35 17° W 23:18:12 10° NW visible
26 Jun ? 23:06:24 10° SW 23:09:17 19° W 23:12:12 10° NW visible
27 Jun ? 22:59:50 10° SSW 23:02:59 23° W 23:06:08 10° NW visible
28 Jun ? 22:53:19 10° SSW 22:56:39 26° W 23:00:02 10° NW visible
29 Jun ? 22:46:49 10° SSW 22:50:20 31° W 22:53:52 10° NNW visible
30 Jun ? 22:40:21 10° SSW 22:44:00 36° W 22:47:41 10° NNW visible
